Regional Weather Roundup
Issued by NWS

Home | Current Version | Previous Version | Text Only | Print | Product List | Glossary On
Versions: 1 2 3 4 5 6 7 8 9 10 11 12 13 14 15 16 17 18 19 20 21 22 23 24 25 26 27 28 29 30 31 32 33 34 35 36 37 38 39 40 41 42 43 44 45 46 47 48 49 50
000
ASUS44 KLIX 280913
RWRLA
LOUISIANA WEATHER ROUNDUP
NATIONAL WEATHER SERVICE NEW ORLEANS LA
300 AM CST TUE FEB 28 2017

NOTE: "FAIR" INDICATES FEW OR NO CLOUDS BELOW 12,000 FEET WITH NO
      SIGNIFICANT WEATHER AND/OR OBSTRUCTIONS TO VISIBILITY.
      SKY/WX - SKY CONDITION AND SIGNIFICANT WEATHER.
      TMP - AIR TEMPERATURE.    DP   - DEWPOINT TEMPERATURE.
      RH  - RELATIVE HUMIDITY.  PRES - PRESSURE.
      HX  - HEAT INDEX.         WCI  - WIND CHILL INDEX.

*  THESE STATIONS ARE NOT NWS OR FAA STATIONS AND ARE NOT UNDER
   NWS QUALITY CONTROL.

LAZ040-048-061>063-065-066-069-281000-
SOUTHEAST LOUISIANA

CITY           SKY/WX    TMP DP  RH WIND       PRES   REMARKS
N.O. INTL ARPT CLOUDY    72  70  93 S12       30.10F
N.O. LAKEFRONT CLOUDY    72  70  93 S12       30.10F
N.O. DOWNTOWN*   N/A     72  70  93 S7        30.11F
RESERVE*       CLOUDY    72  71  94 SE8       30.09S
SLIDELL        CLOUDY    71  70  96 S12       30.10F FOG
BATON ROUGE    MOCLDY    71  68  90 S10       30.07S
BOOTHVILLE     CLOUDY    70  70 100 SE8       30.12S FOG
BELLE CHASSE   CLOUDY    72  70  93 S13       30.10F
BOGALUSA*      CLOUDY    72  67  85 S6        30.12F
GALLIANO*      CLOUDY    72  68  89 SE8       30.10S FOG
NEW ROADS*     CLOUDY    70  67  91 S7        30.07R
GONZALES*      CLOUDY    71  68  90 S6        30.07F
HAMMOND*       CLOUDY    70  66  88 S8        30.09F
HOUMA*         CLOUDY    72  70  95 SE12G18   30.09F
PORT FOURCHON* CLOUDY    72  70  94 SE10G16   30.09F FOG

$$

LAZ041-044-053-054-281000-
SOUTHWEST LOUISIANA

CITY           SKY/WX    TMP DP  RH WIND       PRES   REMARKS
LAKE CHARLES   CLOUDY    72  69  90 S13       30.02F
LAFAYETTE      CLOUDY    74  70  87 S13G21    30.06S
PATTERSON      CLOUDY    72  70  93 S13G21    30.07F
SALT POINT       N/A     68  68 100 VRB7      30.06F
NEW IBERIA     CLOUDY    71  68  90 S18       30.07S
CHENAULT AIRPK CLOUDY    71  69  93 S13G18    30.03S

$$

LAZ027-028-281000-
CENTRAL LOUISIANA

CITY           SKY/WX    TMP DP  RH WIND       PRES   REMARKS
FORT POLK      CLOUDY    72  69  90 S13       30.00F
ALEXANDRIA INT CLOUDY    72  67  84 S13       30.00F
ALEXANDRIA     CLOUDY    72  68  87 S9        30.02F

$$

LAZ001-002-281000-
NORTHWEST LOUISIANA

CITY           SKY/WX    TMP DP  RH WIND       PRES   REMARKS
SHREVEPORT     CLOUDY    65  64  97 SE6       29.96F FOG
BARKSDALE AFB  CLOUDY    65  65 100 SE8       29.96F
DTN SHREVEPORT CLOUDY    65  63  93 SE7       29.96F

$$

LAZ014-016-281000-
NORTHEAST LOUISIANA

CITY           SKY/WX    TMP DP  RH WIND       PRES   REMARKS
MONROE         CLOUDY    64  62  93 SE3       30.02F
TALLULAH       CLOUDY    64  62  93 E5        30.06F

$$




USA.gov is the U.S. government's official web portal to all federal, state and local government web resources and services.